Overview Statistics Trail Chart Weather Telemetry Raw packets
 

This is the latest recevied weather packets stored in our database for station/object K7KAR-2. If no packets are shown the sender has not sent any weather packets the latest 10 day(s).

<< 103 104 105 106 107 108 109 >>
Time Temp. Humidity Pressure Rain* Wind** Luminosity Snow
1787836677 15.56° C 58% 1018.2 hPa 0 mm - 56 W/m² -
1787836377 15° C 58% 1018.2 hPa 0 mm - 51 W/m² -
1787836072 15° C 58% 1018 hPa 0 mm - 42 W/m² -
1787835768 14.44° C 60% 1018.2 hPa 0 mm - 34 W/m² -
1787835468 14.44° C 62% 1018 hPa 0 mm - 28 W/m² -
1787835163 13.89° C 62% 1017.9 hPa 0 mm - 23 W/m² -
1787834863 13.89° C 62% 1017.4 hPa 0 mm - 18 W/m² -
1787834557 13.33° C 63% 1017.8 hPa 0 mm - 13 W/m² -
1787834252 13.89° C 62% 1017.8 hPa 0 mm - 9 W/m² -
1787833949 13.89° C 61% 1018.1 hPa 0 mm - 6 W/m² -
1787833643 13.89° C 60% 1018.4 hPa 0 mm - 4 W/m² -
1787833339 14.44° C 59% 1018.2 hPa 0 mm - 2 W/m² -
1787833034 15° C 58% 1018.4 hPa 0 mm - 1 W/m² -
1787832730 15° C 58% 1018.7 hPa 0 mm - 0 W/m² -
1787832429 15° C 57% 1018.4 hPa 0 mm - 0 W/m² -
1787832129 14.44° C 60% 1018.6 hPa 0 mm - 0 W/m² -
1787831827 15° C 59% 1018.1 hPa 0 mm - 0 W/m² -
1787831522 14.44° C 60% 1017.8 hPa 0 mm - 0 W/m² -
1787831221 14.44° C 60% 1018.1 hPa 0 mm - 0 W/m² -
1787830917 15° C 60% 1017.9 hPa 0 mm - 0 W/m² -
1787830616 15° C 59% 1017.8 hPa 0 mm - 0 W/m² -
1787830316 15° C 58% 1017.7 hPa 0 mm - 0 W/m² -
1787830010 15° C 57% 1017.8 hPa 0 mm - 0 W/m² -
1787829704 15° C 58% 1018 hPa 0 mm - 0 W/m² -
1787829399 15° C 57% 1017.8 hPa 0 mm - 0 W/m² -

* Rain latest hour (hover to see other rain measurements)
** Current wind speed in m/s (hover to see current wind gust speed)